Location: Newark
(34.3481°N, 134.0494°E)
Time: 01:04:10
(UTC+00:00)

Courier 1B Rocket - All Passes

Search period start: 21 January 2020 00:00
Search period end: 31 January 2020 00:00
Orbit: 920 x 1202 km, 28.2° (Epoch: 20 January)

Date Brightness Start Highest point End Pass type
(mag) Time Alt. Az. Time Alt. Az. Time Alt. Az.
21 Jan - 02:18:12 10° SSW 02:22:27 17° SSE 02:26:32 10° ESE daylight
21 Jan - 04:09:11 10° SW 04:15:20 36° SSE 04:21:09 10° E daylight
21 Jan - 06:02:05 10° WSW 06:08:23 50° S 06:14:24 10° ESE daylight
21 Jan - 07:55:32 10° W 08:01:22 39° SSW 08:07:07 10° SE daylight
21 Jan - 09:49:55 10° WSW 09:54:06 19° SSW 09:58:19 10° SSE visible
22 Jan - 01:19:06 10° S 01:21:33 12° SSE 01:23:57 10° SE daylight
22 Jan - 03:08:28 10° SW 03:14:26 30° SSE 03:20:03 10° ESE daylight
22 Jan - 05:01:02 10° WSW 05:07:27 48° S 05:13:32 10° ESE daylight
22 Jan - 06:54:23 10° W 07:00:31 45° S 07:06:26 10° ESE daylight
22 Jan - 08:48:19 10° WSW 08:53:20 25° SSW 08:58:19 10° SSE visible
23 Jan - 02:07:56 10° SSW 02:13:29 24° SSE 02:18:46 10° ESE daylight
23 Jan - 03:59:59 10° WSW 04:06:30 44° S 04:12:37 10° E daylight
23 Jan - 05:53:15 10° WSW 05:59:37 50° S 06:05:40 10° ESE daylight
23 Jan - 07:46:58 10° W 07:52:33 32° SSW 07:58:00 10° SE daylight
23 Jan - 09:42:41 10° SW 09:45:10 12° SSW 09:47:39 10° S visible
24 Jan - 01:07:47 10° SSW 01:12:33 18° SSE 01:17:09 10° ESE daylight
24 Jan - 02:59:01 10° SW 03:05:32 38° SSE 03:11:38 10° E daylight
24 Jan - 04:52:05 10° WSW 04:58:40 51° S 05:04:52 10° ESE daylight
24 Jan - 06:45:41 10° W 06:51:43 40° SSW 06:57:30 10° SE daylight
24 Jan - 08:40:16 10° WSW 08:44:25 18° SSW 08:48:32 10° SSE visible
25 Jan - 00:08:21 10° S 00:11:36 13° SSE 00:14:46 10° SE daylight
25 Jan - 01:58:12 10° SW 02:04:33 32° SSE 02:10:33 10° E daylight
25 Jan - 03:50:55 10° WSW 03:57:41 50° S 04:04:01 10° ESE daylight
25 Jan - 05:44:26 10° W 05:50:50 46° S 05:56:53 10° ESE daylight
25 Jan - 07:38:32 10° WSW 07:43:40 25° SSW 07:48:39 10° SSE daylight
26 Jan - 00:57:35 10° SSW 01:03:33 26° SSE 01:09:14 10° ESE daylight
26 Jan - 02:49:47 10° WSW 02:56:40 46° S 03:03:06 10° E daylight
26 Jan - 04:43:11 10° WSW 04:49:53 51° S 04:56:09 10° ESE daylight
26 Jan - 06:37:03 10° W 06:42:52 33° SSW 06:48:25 10° SE daylight
26 Jan - 08:33:01 10° SW 08:35:27 12° SSW 08:37:52 10° S daylight
26 Jan - 23:57:21 10° SSW 00:02:34 20° SSE 00:07:36 10° ESE daylight
27 Jan - 01:48:45 10° SW 01:55:38 40° SSE 02:02:05 10° E daylight
27 Jan - 03:41:55 10° WSW 03:48:53 52° S 03:55:20 10° ESE daylight
27 Jan - 05:35:40 10° W 05:42:00 40° SSW 05:47:58 10° SE daylight
27 Jan - 07:30:25 10° WSW 07:34:43 18° SSW 07:38:54 10° SSE daylight
27 Jan - 22:57:47 10° S 23:01:35 14° SSE 23:05:18 10° ESE daylight
28 Jan - 00:47:53 10° SW 00:54:34 34° SSE 01:00:56 10° E daylight
28 Jan - 02:40:41 10° WSW 02:47:49 51° S 02:54:28 10° E daylight
28 Jan - 04:34:19 10° W 04:41:04 47° S 04:47:20 10° ESE daylight
28 Jan - 06:28:34 10° WSW 06:33:56 26° SSW 06:39:05 10° SSE daylight
28 Jan - 23:47:15 10° SSW 23:53:31 27° SSE 23:59:34 10° ESE daylight
29 Jan - 01:39:31 10° WSW 01:46:43 47° S 01:53:29 10° E daylight
29 Jan - 03:32:59 10° WSW 03:40:03 52° S 03:46:36 10° ESE daylight
29 Jan - 05:26:59 10° W 05:33:06 33° SSW 05:38:53 10° SE daylight
29 Jan - 07:23:04 10° SW 07:25:43 13° SSW 07:28:19 10° S daylight
29 Jan - 22:46:59 10° SSW 22:52:29 21° SSE 22:57:53 10° ESE daylight
30 Jan - 00:38:28 10° SW 00:45:37 42° SSE 00:52:25 10° E daylight
30 Jan - 02:31:41 10° WSW 02:38:58 54° S 02:45:45 10° ESE daylight
30 Jan - 04:25:31 10° W 04:32:11 41° SSW 04:38:25 10° SE daylight
30 Jan - 06:20:23 10° WSW 06:24:57 19° SSW 06:29:22 10° SSE daylight
30 Jan - 21:47:23 10° S 21:51:29 15° SSE 21:55:33 10° ESE daylight
30 Jan - 23:37:35 10° SW 23:44:30 35° SSE 23:51:11 10° E daylight
